{"data":{"norad_id":65177,"epoch":"2026-09-20T10:19:02.275680Z","epoch_age_seconds":126443,"freshness":"FRESH","line1":"1 65177U 25175D   26263.42988745  .00008410  00000+0  26282-3 0  9997","line2":"2 65177  97.2867 132.4325 0001247  83.0146 277.1238 15.33412030 62126","mean_motion":15.3341203,"eccentricity":0.0001247,"inclination_deg":97.2867,"raan_deg":132.4325,"arg_perigee_deg":83.0146,"mean_anomaly_deg":277.1238,"bstar":0.00026282,"rev_number":6212,"period_min":93.908223740752,"perigee_km":464.7878526089,"apogee_km":466.49469090988,"semimajor_km":6843.7782717594,"source":"CELESTRAK","updated_at":"2026-09-21T09:00:35.527854Z"}}